Weather History for Taos, NM

Change the Weather History Date:

Thursday, February 21, 2013

  Actual Average Record
Temperature  
Mean Temperature 24 °F -  
Max Temperature 35 °F 42 °F 60 °F (2000)
Min Temperature 12 °F 17 °F 6 °F (2006)
Degree Days  
Heating Degree Days 42    
Moisture  
Dew Point 18 °F    
Average Humidity 73    
Maximum Humidity 93    
Minimum Humidity 56    
Precipitation  
Precipitation 0.00 in - - ()
Sea Level Pressure  
Sea Level Pressure 29.70 in    
Wind  
Wind Speed 8 mph (WSW)    
Max Wind Speed 24 mph    
Max Gust Speed 31 mph    
Visibility 10 miles    
Events      
Averages and records for this station are not official NWS values.
T = Trace of Precipitation, MM = Missing Value Source: NWS Daily Summary

Daily Weather History Graph

Daily Weather History Graph

Search for Another Location

Airport:

Trip Planner

Search our weather history database for the weather conditions in past years. The results will help you decide how hot, cold, wet, or windy it might be!

Date:

Astronomy

Feb. 21, 2013 Rise Set
Actual Time 6:43 AM MST 5:49 PM MST
Civil Twilight 6:17 AM MST 6:16 PM MST
Nautical Twilight 5:46 AM MST 6:46 PM MST
Astronomical Twilight 5:17 AM MST 7:15 PM MST
Moon 2:11 PM MST 3:45 AM MST
Length of Visible Light 11h 59m
Length of Day
11h 06m
Waxing Gibbous, 84% of the Moon is Illuminated
Feb 21
Waxing Gibbous
Feb 25
Full
Mar 4
Last Quarter
Mar 11
New
Mar 19
First Quarter

Hourly Weather History & Observations

Time (MST) Temp. Windchill Dew Point Humidity Pressure Visibility Wind Dir Wind Speed Gust Speed Precip Events Conditions
12:15 AM 15.8 °F 8.6 °F 10.4 °F 79% 29.56 in 10.0 mi NNE 4.6 mph - N/A   Clear
12:35 AM 15.8 °F 8.6 °F 10.4 °F 79% 29.55 in 10.0 mi ENE 4.6 mph - N/A   Clear
12:55 AM 15.8 °F 8.6 °F 10.4 °F 79% 29.55 in 10.0 mi NNE 4.6 mph - N/A   Clear
1:15 AM 15.8 °F - 10.4 °F 79% 29.55 in 10.0 mi Calm Calm - N/A   Clear
1:35 AM 15.8 °F 10.2 °F 12.2 °F 86% 29.55 in 10.0 mi North 3.5 mph - N/A   Clear
1:55 AM 17.6 °F 9.3 °F 12.2 °F 79% 29.56 in 10.0 mi NNE 5.8 mph - N/A   Clear
2:15 AM 17.6 °F 9.3 °F 12.2 °F 79% 29.56 in 10.0 mi North 5.8 mph - N/A   Clear
2:35 AM 17.6 °F 10.7 °F 14.0 °F 86% 29.55 in 10.0 mi North 4.6 mph - N/A   Clear
2:55 AM 15.8 °F 7.2 °F 12.2 °F 86% 29.55 in 10.0 mi North 5.8 mph - N/A   Clear
3:15 AM 15.8 °F 10.2 °F 12.2 °F 86% 29.55 in 10.0 mi NNW 3.5 mph - N/A   Partly Cloudy
3:35 AM 15.8 °F 8.6 °F 12.2 °F 86% 29.55 in 10.0 mi NNW 4.6 mph - N/A   Clear
3:55 AM 15.8 °F 7.2 °F 12.2 °F 86% 29.56 in 10.0 mi North 5.8 mph - N/A   Clear
4:15 AM 12.2 °F 2.9 °F 8.6 °F 85% 29.56 in 10.0 mi North 5.8 mph - N/A   Clear
5:15 AM 14.0 °F 6.5 °F 8.6 °F 79% 29.59 in 10.0 mi ESE 4.6 mph - N/A   Mostly Cloudy
5:35 AM 15.8 °F 10.2 °F 12.2 °F 86% 29.60 in 10.0 mi East 3.5 mph - N/A   Overcast
5:55 AM 17.6 °F 12.3 °F 12.2 °F 79% 29.61 in 10.0 mi East 3.5 mph - N/A   Overcast
6:15 AM 17.6 °F - 14.0 °F 86% 29.63 in 10.0 mi Calm Calm - N/A   Overcast
6:35 AM 19.4 °F - 15.8 °F 86% 29.63 in 10.0 mi Calm Calm - N/A   Overcast
6:55 AM 17.6 °F - 15.8 °F 93% 29.64 in 10.0 mi Calm Calm - N/A   Overcast
7:15 AM 17.6 °F 10.7 °F 14.0 °F 86% 29.66 in 10.0 mi North 4.6 mph - N/A   Overcast
7:35 AM 15.8 °F 8.6 °F 10.4 °F 79% 29.67 in 10.0 mi NNW 4.6 mph - N/A   Mostly Cloudy
7:55 AM 17.6 °F - 15.8 °F 93% 29.68 in 10.0 mi Calm Calm - N/A   Mostly Cloudy
8:15 AM 19.4 °F - 15.8 °F 86% 29.69 in 10.0 mi Calm Calm - N/A   Partly Cloudy
8:35 AM 24.8 °F - 19.4 °F 80% 29.70 in 10.0 mi Calm Calm - N/A   Partly Cloudy
8:55 AM 24.8 °F 17.9 °F 17.6 °F 74% 29.70 in 10.0 mi South 5.8 mph - N/A   Scattered Clouds
9:15 AM 24.8 °F 16.9 °F 17.6 °F 74% 29.70 in 10.0 mi SSW 6.9 mph - N/A   Mostly Cloudy
9:35 AM 26.6 °F 19.1 °F 17.6 °F 69% 29.71 in 10.0 mi SSW 6.9 mph - N/A   Overcast
9:55 AM 26.6 °F 19.1 °F 19.4 °F 74% 29.71 in 10.0 mi SW 6.9 mph - N/A   Overcast
10:15 AM 28.4 °F 19.1 °F 19.4 °F 69% 29.71 in 10.0 mi WSW 10.4 mph - N/A   Overcast
10:35 AM 30.2 °F 19.3 °F 23.0 °F 75% 29.71 in 10.0 mi SW 15.0 mph - N/A   Mostly Cloudy
10:55 AM 30.2 °F 19.3 °F 21.2 °F 69% 29.71 in 10.0 mi WSW 15.0 mph - N/A   Overcast
11:15 AM 32.0 °F 21.6 °F 23.0 °F 69% 29.71 in 10.0 mi SW 15.0 mph - N/A   Overcast
11:35 AM 33.8 °F 23.2 °F 21.2 °F 60% 29.70 in 10.0 mi WSW 17.3 mph 24.2 mph N/A   Overcast
11:55 AM 32.0 °F 19.8 °F 21.2 °F 64% 29.70 in 10.0 mi SW 20.7 mph 27.6 mph N/A   Overcast
12:15 PM 32.0 °F 19.8 °F 23.0 °F 69% 29.69 in 10.0 mi SW 20.7 mph 26.5 mph N/A   Overcast
12:35 PM 33.8 °F 21.9 °F 21.2 °F 60% 29.69 in 10.0 mi WSW 21.9 mph 31.1 mph N/A   Overcast
12:55 PM 33.8 °F 21.3 °F 21.2 °F 60% 29.68 in 10.0 mi WSW 24.2 mph 27.6 mph N/A   Overcast
1:15 PM 33.8 °F 21.9 °F 21.2 °F 60% 29.68 in 10.0 mi WSW 21.9 mph - N/A   Overcast
1:35 PM 33.8 °F 22.5 °F 21.2 °F 60% 29.68 in 10.0 mi WSW 19.6 mph 26.5 mph N/A   Overcast
1:55 PM 33.8 °F 22.8 °F 23.0 °F 65% 29.69 in 10.0 mi WSW 18.4 mph 24.2 mph N/A   Overcast
2:15 PM 33.8 °F 22.8 °F 21.2 °F 60% 29.69 in 10.0 mi WSW 18.4 mph - N/A   Overcast
2:35 PM 35.6 °F 24.2 °F 23.0 °F 60% 29.69 in 10.0 mi WSW 21.9 mph 25.3 mph N/A   Overcast
2:55 PM 33.8 °F 23.2 °F 23.0 °F 65% 29.70 in 10.0 mi SW 17.3 mph 24.2 mph N/A   Mostly Cloudy
3:15 PM 35.6 °F 24.8 °F 23.0 °F 60% 29.71 in 10.0 mi WSW 19.6 mph 27.6 mph N/A   Mostly Cloudy
3:35 PM 35.6 °F 23.7 °F 24.8 °F 65% 29.70 in 10.0 mi SW 24.2 mph 27.6 mph N/A   Mostly Cloudy
3:55 PM 33.8 °F 22.5 °F 21.2 °F 60% 29.71 in 10.0 mi WSW 19.6 mph - N/A   Scattered Clouds
4:15 PM 33.8 °F 23.5 °F 21.2 °F 60% 29.71 in 10.0 mi West 16.1 mph - N/A   Clear
4:35 PM 35.6 °F 25.5 °F 21.2 °F 56% 29.72 in 10.0 mi WSW 17.3 mph - N/A   Clear
4:55 PM 33.8 °F 23.9 °F 21.2 °F 60% 29.73 in 10.0 mi WSW 15.0 mph - N/A   Scattered Clouds
5:15 PM 32.0 °F 21.2 °F 21.2 °F 64% 29.74 in 10.0 mi WSW 16.1 mph - N/A   Overcast
5:35 PM 32.0 °F 22.5 °F 21.2 °F 64% 29.75 in 10.0 mi WSW 12.7 mph - N/A   Overcast
5:55 PM 32.0 °F 22.1 °F 19.4 °F 60% 29.76 in 10.0 mi WSW 13.8 mph - N/A   Overcast
6:15 PM 30.2 °F 19.3 °F 19.4 °F 64% 29.77 in 10.0 mi WSW 15.0 mph - N/A   Mostly Cloudy
6:35 PM 28.4 °F 19.1 °F 19.4 °F 69% 29.78 in 10.0 mi WSW 10.4 mph - N/A   Mostly Cloudy
6:55 PM 28.4 °F 18.5 °F 19.4 °F 69% 29.79 in 10.0 mi WSW 11.5 mph - N/A   Scattered Clouds
7:15 PM 28.4 °F 19.7 °F 19.4 °F 69% 29.80 in 10.0 mi SW 9.2 mph - N/A   Mostly Cloudy
7:35 PM 28.4 °F 19.7 °F 19.4 °F 69% 29.81 in 10.0 mi SW 9.2 mph - N/A   Overcast
7:55 PM 28.4 °F 19.1 °F 19.4 °F 69% 29.81 in 10.0 mi SW 10.4 mph - N/A   Overcast
8:15 PM 28.4 °F 19.7 °F 19.4 °F 69% 29.82 in 10.0 mi WSW 9.2 mph - N/A   Mostly Cloudy
8:35 PM 26.6 °F 20.0 °F 19.4 °F 74% 29.83 in 10.0 mi WSW 5.8 mph - N/A   Mostly Cloudy
8:55 PM 26.6 °F 17.5 °F 19.4 °F 74% 29.83 in 10.0 mi SW 9.2 mph - N/A   Mostly Cloudy
9:15 PM 24.8 °F 16.1 °F 17.6 °F 74% 29.83 in 10.0 mi WSW 8.1 mph - N/A   Scattered Clouds
9:35 PM 24.8 °F 16.9 °F 17.6 °F 74% 29.84 in 10.0 mi SW 6.9 mph - N/A   Partly Cloudy
9:55 PM 24.8 °F 16.1 °F 17.6 °F 74% 29.83 in 10.0 mi SW 8.1 mph - N/A   Partly Cloudy
10:15 PM 24.8 °F 14.6 °F 17.6 °F 74% 29.83 in 10.0 mi SW 10.4 mph - N/A   Clear
10:35 PM 24.8 °F 15.3 °F 17.6 °F 74% 29.83 in 10.0 mi SW 9.2 mph - N/A   Partly Cloudy
10:55 PM 24.8 °F 16.1 °F 17.6 °F 74% 29.83 in 10.0 mi SW 8.1 mph - N/A   Partly Cloudy
11:15 PM 24.8 °F 16.1 °F 17.6 °F 74% 29.83 in 10.0 mi SW 8.1 mph - N/A   Partly Cloudy
11:55 PM 24.8 °F 15.3 °F 19.4 °F 80% 29.84 in 10.0 mi SW 9.2 mph - N/A   Overcast